CT1AKV-10 Estrada Real PT current weather conditions

sailwx.info

Wind from 299 at 3 knots gusting 9

Air temperature 27.8° C
Dewpoint 4.1° C

Last reported at 2014-Jul-26 18:45 UTC.
Time now 2014-Jul-26 19:14 UTC

Location: N 39°11' W 008°44'.
View on Google Maps.

See reports from other nearby stations

  
Tides and Currents Weather Stations Pressure Air Temp Water Temp Dewpoint Dewpoint Depression Visibility Wind Speed Wind Dir Waves Ship Positions
date/time (UTC)wind fromknots sea level pressurealtimeterstation pressurevisibilityair tempwater tempwave heightnotes
2014-Jul-26 18:45 299 3 gusting 9 27.8
2014-Jul-26 18:30 310 3 gusting 7 29.4
2014-Jul-26 18:15 298 2 gusting 6 31.1
2014-Jul-26 18:00 329 1 gusting 6 32.2
2014-Jul-26 17:45 294 32.8
2014-Jul-26 17:30 295 0 gusting 3 33.3
2014-Jul-26 17:15 063 0 gusting 3 31.7
2014-Jul-26 17:00 329 1 gusting 5 32.8
2014-Jul-26 16:45 042 0 gusting 3 35.0
2014-Jul-26 16:30 312 1 gusting 6 34.4
2014-Jul-26 16:15 322 0 gusting 4 35.0
2014-Jul-26 16:00 329 0 gusting 6 35.0
2014-Jul-26 15:45 010 35.0
2014-Jul-26 15:30 032 0 gusting 3 33.9
2014-Jul-26 15:15 048 1 gusting 5 33.9
2014-Jul-26 15:00 115 0 gusting 3 33.9
2014-Jul-26 14:45 083 1 gusting 6 32.8
2014-Jul-26 14:30 103 0 gusting 6 32.8
2014-Jul-26 14:15 101 0 gusting 5 32.8
2014-Jul-26 14:00 023 0 gusting 3 32.2
2014-Jul-26 13:45 345 0 gusting 6 32.2
2014-Jul-26 13:30 317 1 gusting 5 31.1
2014-Jul-26 13:15 323 1 gusting 5 31.7
2014-Jul-26 13:00 334 0 gusting 4 31.7
2014-Jul-26 12:45 253 0 gusting 4 30.6
2014-Jul-26 12:30 347 0 gusting 4 30.0
2014-Jul-26 12:15 322 0 gusting 3 28.9
2014-Jul-26 12:00 272 0 gusting 3 28.3
2014-Jul-26 11:45 334 26.7
2014-Jul-26 11:30 307 0 gusting 3 25.6
2014-Jul-26 11:15 25.0
2014-Jul-26 11:00 154 23.9
2014-Jul-26 10:45 100 23.3
2014-Jul-26 10:30 116 22.8
2014-Jul-26 10:15 058 22.8
2014-Jul-26 10:00 037 0 gusting 3 22.2
2014-Jul-26 09:45 054 0 gusting 3 21.7
2014-Jul-26 09:30 048 0 gusting 3 21.1
2014-Jul-26 09:15 139 21.1
2014-Jul-25 22:15 293 1 gusting 5 17.8
2014-Jul-25 22:00 323 1 gusting 6 17.8
2014-Jul-25 21:45 279 2 gusting 6 17.8
2014-Jul-25 21:30 287 1 gusting 5 18.3
2014-Jul-25 21:15 298 1 gusting 6 18.3
2014-Jul-25 21:00 296 1 gusting 5 18.3
2014-Jul-25 20:45 308 2 gusting 7 18.3
2014-Jul-25 20:30 321 4 gusting 12 18.9
2014-Jul-25 20:15 315 4 gusting 10 18.9
2014-Jul-25 20:00 301 5 gusting 12 19.4
2014-Jul-25 19:45 276 4 gusting 11 19.4
2014-Jul-25 19:30 318 5 gusting 13 20.6
2014-Jul-25 19:15 301 6 gusting 13 21.1
2014-Jul-25 19:00 277 6 gusting 13 22.2
2014-Jul-25 18:45 296 5 gusting 13 23.3
2014-Jul-24 21:45 313 3 gusting 11 20.0
2014-Jul-24 21:30 315 4 gusting 12 20.0
2014-Jul-24 21:15 295 2 gusting 8 20.0
2014-Jul-24 21:00 312 4 gusting 10 20.0
2014-Jul-24 20:45 320 3 gusting 9 20.0
2014-Jul-24 20:30 320 4 gusting 9 20.0
2014-Jul-24 20:15 344 4 gusting 12 20.0
2014-Jul-24 20:00 316 4 gusting 11 20.6
2014-Jul-24 19:45 326 4 gusting 10 20.6
2014-Jul-24 19:30 316 2 gusting 7 21.1
2014-Jul-24 19:15 311 4 gusting 11 21.7
2014-Jul-24 19:00 328 3 gusting 10 22.2